METEOR 1-25

Satellite information

Favourite Embed

Satellite Type and Status

PAYLOADIN ORBIT

Key statistics

Satellite METEOR 1-25 at a glance.

Uptime

17895

Days in orbit

Revolutions

≈ 14.1

Per day

Orbit

LEO

Low Earth Orbit

Inclination

81.3

Latest

Satellite identification and parameters

Extended collection of information and parameters for METEOR 1-25.

Object identification

Identified? True

Debris? False

Object name: METEOR 1-25

International designator: 1976-043A

Object number (NORAD): 8845

Object ID (CCSDS): 8845

Country: COMMONWEALTH OF INDEPENDENT STATES (CIS)

Current information (Y/N): Y

RCS size: LARGE

Orbital parameters

Period: 101.999 minutes

Inclination: 81.2627 deg

SMA: 7231.438 km

Apoapsis: 881.869 km

Periapsis: 824.737 km

RAAN: 345.7668 deg

Eccentricy: 0.0039502

Argument of periapsis: 350.3623 deg

Mean anomaly: 9.6786 deg

Mean motion: 14.11775909 rev/day

Mean motion (dot): 0.00000119 rev/day2

B* drag term: 0.000058264 1/REarth

Two-line elements (TLE)

Creation date: May 12, 2025, 11:06 p.m.

Reference frame: TEME

Reference center: EARTH

Epoch: May 12, 2025, 8:27 p.m. UTC

TLE line 0: 0 METEOR 1-25

TLE line 1: 1 8845U 76043A 25132.85270713 .00000119 00000-0 58264-4 0 9991

TLE line 2: 2 8845 81.2627 345.7668 0039502 350.3623 9.6786 14.11775909668733

Live tracking on map

Real-time ground track for satellite METEOR 1-25.

In-orbit conjunctions

A list of the most updated potential collisions computed for object METEOR 1-25.

Target Orbit TCA Probability of collision Miss distance Type
FENGYUN 1C DEB SSO 2025-03-06 13:34:15 0.0001667105 107.0 (m) DEBRIS
CZ-6A DEB SSO 2024-11-14 10:03:13 0.001982054 107.0 (m) DEBRIS
FENGYUN 1C DEB SSO 2024-11-10 08:16:05 0.0004065733 157.0 (m) DEBRIS
NOAA 16 DEB SSO 2024-10-31 16:53:18 0.00010334 991.0 (m) DEBRIS
CZ-6A DEB SSO 2024-07-28 08:13:38 0.0002359804 982.0 (m) DEBRIS

Associated space launch

Meteor meteorological satellite

METEOR 1-25 was lifted into orbit during the mission ‘Vostok 8A92M | Meteor-Priroda 2-1’, on board a Vostok 8A92M space rocket.

The launch took place on May 15, 1976, 1:30 p.m. from 43/3 (43L).

For more information about the launch, click the button.

Launch to space Vostok 8A92M | Meteor-Priroda 2-1
Vostok 8A92M | Meteor-Priroda 2-1

Agency: N/A

Status: Launch Successful

Launch date: May 15, 1976, 1:30 p.m. UTC

Rocket: Vostok 8A92M

Launch pad: 43/3 (43L)

Location: Plesetsk Cosmodrome, Russian Federation

...

Latest news about this satellite

There are no fresh news available about this satellite. Check back as we update our databases every day.


Newsletter sign-up

Weekly statistics, charts and insights to help you stay on top of the space industry.